User: anonymous   Login
Location: Anjeux
(47.8815°N, 6.2076°E)
Time: 12:54:09
(UTC+00:00)
Language:

DX 1 - Orbit

View from above orbital plane
View from above orbital plane
View from above satellite
View from above satellite

Ground track
Ground track

The orbit data is extracted from the following two-line orbital elements,

1 40071U 14037C   21340.13253756  .00000338  00000-0  50477-4 0  9990
2 40071  98.4319 193.9675 0007616 211.1178 148.9587 14.81591019400712
Epoch (UTC): 06 December 2021 03:10:51
Eccentricity: 0.0007616
inclination: 98.4319°
perigee height: 619 km
apogee height: 629 km
right ascension of ascending node: 193.9675°
argument of perigee: 211.1178°
revolutions per day: 14.81591019
mean anomaly at epoch: 148.9587°
orbit number at epoch: 40071

The dashed part of the orbit path shows where the satellite is in the earth's shadow,  

DLR